sat.trackr.live / text

‹ back to catalog

STARLINK-6263

NORAD 56549 · 2023-065AY

PAYLOAD ACTIVE UNKNOWN

§ Identity

Operator
Country
US
Launch date
2023-05-14
Launch site
AFETR
Launch vehicle
Mass (kg)
RCS (m²)

Purposes: comms

External: N2YO · Heavens-Above · Gunter

§ Orbital elements

Epoch: 2026-05-25T00:04:29.649216Z

Period
94.27 min
Inclination
43.0027°
Eccentricity
0.0001287
Mean motion
15.27575985 rev/d
Perigee alt
482.2 km
Apogee alt
483.9 km
Semi-major
6,861.2 km
B*
3.0080e-5
RAAN
152.5748°
Arg perigee
290.7054°
Mean anomaly
69.3660°
Rev number
16,814

§ Raw data

STARLINK-62631 56549U 23065AY  26145.00312094  .00000566  00000+0  30080-4 0  99932 56549  43.0027 152.5748 0001287 290.7054  69.3660 15.27575985168148

JSON: /api/v1/satellites/56549 · /tle

For live sub-satellite position, see the globe view (requires WebGL).

§ Visibility from observer

Set your observer location to see the next 7 days of passes ≥ 10°. The values pass through the URL so the page stays shareable.

No JS? Fill the form by hand. The geolocation button needs JavaScript.